Regional Weather Roundup
Issued by NWS

Home | Current Version | Previous Version | Graphics & Text | Print | Product List | Glossary On
Versions: 1 2 3 4 5 6 7 8 9 10 11 12 13 14 15 16 17 18 19 20 21 22 23 24 25 26 27 28 29 30 31 32 33 34 35 36 37 38 39 40 41 42 43 44 45 46 47 48 49 50
000
ASUS43 KBIS 222202
RWRND

NORTH DAKOTA REGIONAL WEATHER ROUNDUP
NATIONAL WEATHER SERVICE BISMARCK ND
400 PM CST WED NOV 22 2017

NOTE: "FAIR" INDICATES FEW OR NO CLOUDS BELOW 12,000 FEET WITH NO
SIGNIFICANT WEATHER AND/OR OBSTRUCTIONS TO VISIBILITY.


NDZ001>003-009>011-017-222300-
NORTHWEST NORTH DAKOTA

CITY           SKY/WX    TMP DP  RH WIND       PRES   REMARKS
WILLISTON      CLEAR     47  31  53 NW13      29.92R
MINOT          CLEAR     39  25  57 NW13      29.88R
MINOT AFB      CLEAR     36  24  61 N12       29.87R
$$

NDZ018>021-031>035-040>046-222300-
SOUTHWEST NORTH DAKOTA

CITY           SKY/WX    TMP DP  RH WIND       PRES   REMARKS
BISMARCK       CLEAR     62  39  42 NW21G30   29.85R
DICKINSON      CLOUDY    58  37  45 NW23      29.88R
GARRISON         N/A     46  34  62 N9        29.87R
HETTINGER ARPT CLOUDY    63  38  39 NW28G37   29.93R
$$

NDZ004>008-012>016-024-026-027-054-222300-
NORTHEAST NORTH DAKOTA

CITY           SKY/WX    TMP DP  RH WIND       PRES   REMARKS
GRAND FORKS    CLOUDY    28  19  69 S14       29.90R WCI  17
GRND FRKS AFB  CLOUDY    28  18  66 S10       29.89R WCI  18
DEVILS LAKE    MOCLDY    30  21  69 CALM      29.87R
$$

NDZ022-023-025-028>030-036>039-047>053-222300-
SOUTHEAST NORTH DAKOTA

CITY           SKY/WX    TMP DP  RH WIND       PRES   REMARKS
FARGO          CLOUDY    32  16  51 S14       29.90R
JAMESTOWN      CLEAR     45  27  49 NW14      29.82R
$$





USA.gov is the U.S. government's official web portal to all federal, state and local government web resources and services.